Regional Weather Roundup
Issued by NWS Sterling, VA

Current Version | Previous Version | Text Only | Print | Product List | Glossary On
Versions: 1 2 3 4 5 6 7 8 9 10 11 12 13 14 15 16 17 18 19 20 21 22 23 24 25 26 27 28 29 30 31 32 33 34 35 36 37 38 39 40 41 42 43 44 45 46 47 48 49 50
000
ASUS41 KLWX 220710
RWRLWX

REGIONAL WEATHER ROUNDUP
NATIONAL WEATHER SERVICE BALTIMORE MD/WASHINGTON DC
200 AM EST MON DEC 22 2014

Note: "FAIR" indicates few or no clouds below 12,000 feet
with no significant weather and/or obstructions to visibility.
 TC=TEMPERATURE CELSIUS

 * =Non NWS site. Station does not report precipitation (e.g. rain,
    snow, etc.), thunder, or fog.

DCZ001-MDZ009-015-VAZ040>042-051-053>054-220800-
WASHINGTON METRO

CITY           SKY/WX    TMP DP  RH WIND       PRES   REMARKS
WASHINGTON NAT MOCLDY    33  24  69 NE6       30.34F
DULLES         PTCLDY    26  22  84 N5        30.32S
ANDREWS AFB    PTCLDY    27  23  85 NE3       30.31F
FT BELVOIR     MOCLDY    27  24  87 W1        30.33F
QUANTICO       CLOUDY    31  26  82 NW5       30.34S
COLLEGE PARK*  PTCLDY    27  27 100 CALM      30.33F
LEESBURG*      PTCLDY    28  27  93 N3        30.33S
MANASSAS*      MOCLDY    25  25 100 N3        30.32S
GAITHERSBURG*  CLEAR     23  19  86 CALM      30.35S

$$

MDZ006>007-011-014-220800-
BALTIMORE METRO

CITY           SKY/WX    TMP DP  RH WIND       PRES   REMARKS
BWI AIRPORT    PTCLDY    26  21  81 CALM      30.33R
MD SCIENCE CTR   N/A     32  22  66 MISG      30.34R
MARTIN STATE   CLEAR     28  27  93 CALM      30.36R
ANNAPOLIS      MOCLDY    30  27  88 CALM      30.33S FOG
FORT MEADE*    PTCLDY    23  21  93 CALM      30.36R

$$

MDZ012-015-019>023-220800-
MARYLAND EASTERN SHORE

CITY           SKY/WX    TMP DP  RH WIND       PRES   REMARKS
OCEAN CITY     MOCLDY    28  25  88 N5        30.31R FOG
SALISBURY      CLOUDY    32  25  75 CALM      30.31S
BAY BRIDGE AP*   N/A     30  27  86 CALM      30.33S
CAMBRIDGE*     MOCLDY    32  27  80 N5        30.31S
EASTON*        MOCLDY    29  26  88 NE3       30.36S

$$

MDZ017>025-220800-
SOUTHERN MARYLAND

CITY           SKY/WX    TMP DP  RH WIND       PRES   REMARKS
PATUXENT RIVER CLOUDY    33  28  81 CALM      30.32S
ST INIGOES     CLOUDY    35  26  69 NE5       30.31S
LEONARDTOWN*   CLOUDY    30  28  93 CALM      30.32S

$$

MDZ003>005-220800-
NORTH CENTRAL MARYLAND

CITY           SKY/WX    TMP DP  RH WIND       PRES   REMARKS
FREDERICK*     CLEAR     23  19  86 CALM      30.37R FOG
HAGERSTOWN APT CLEAR     25  19  78 CALM      30.30R
WESTMINSTER*   PTCLDY    25  19  80 CALM      30.30R

$$

MDZ501>502-220800-
WESTERN MARYLAND

CITY           SKY/WX    TMP DP  RH WIND       PRES   REMARKS
OAKLAND*       PTCLDY    23 N/A N/A SE15      30.12S HAZE    WCI  10
CUMBERLAND*    PTCLDY    27  27 100 CALM      30.32S

$$

VAZ025>031-220800-
SHENANDOAH VALLEY

CITY           SKY/WX    TMP DP  RH WIND       PRES   REMARKS
WINCHESTER*    CLEAR     28  21  74 NE3       30.28F
FRONT ROYAL*   CLOUDY    28  23  80 CALM      30.27F
LURAY*         CLOUDY    30  30 100 CALM      30.26S
NEW MARKET*    CLOUDY    27  24  91 CALM      30.26S
STAUNTON*      CLOUDY    32  26  78 CALM      30.25F
WAYNESBORO*    CLOUDY    33  26  73 E3        30.22F

$$

WVZ021-048>050-054>055-220800-
EASTERN WEST VIRGINIA PANHANDLE

CITY           SKY/WX    TMP DP  RH WIND       PRES   REMARKS
MARTINSBURG    PTCLDY    24  18  77 CALM      30.31R
PETERSBURG*    CLOUDY    27  26  96 CALM      30.26S FOG

$$

VAZ036>039-050-220800-
CENTRAL FOOTHILLS

CITY           SKY/WX    TMP DP  RH WIND       PRES   REMARKS
CHARLOTTESVILL CLOUDY    33  27  78 CALM      30.28F
CULPEPER*      CLOUDY    28  27  93 CALM      30.32R
ORANGE*        CLOUDY    32  30  93 CALM      30.31S
GORDONSVILLE*  CLOUDY    31  28  89 CALM      30.29S
WARRENTON*     CLOUDY    28  28 100 CALM      30.31R

$$

VAZ055>057-220800-
NORTH AND CENTRAL PIEDMONT

CITY           SKY/WX    TMP DP  RH WIND       PRES   REMARKS
FREDERICKSBRG* CLOUDY    32  30  91 CALM      30.31R
STAFFORD*      CLOUDY    29  29 100 CALM      30.36R

$$

NCZ024-NYZ072-PAZ021-071-VAZ022-071-220800-
OTHER REGIONAL OBSERVATIONS

CITY           SKY/WX    TMP DP  RH WIND       PRES   REMARKS
NEW YORK CITY  CLOUDY    35  29  78 NE5       30.35R
PHILADELPHIA   PTCLDY    28  21  75 NW6       30.35R
PITTSBURGH     PTCLDY    24  21  88 E3        30.15S
ROANOKE        CLOUDY    38  28  67 SE7       30.24F
RICHMOND       CLOUDY    36  28  73 NE7       30.28F
RALEIGH        DRIZZLE   38  33  82 NE10      30.19F

$$

ANZ530>537-220800-
MARINE OBSERVATIONS

STATION/POSITION TIME  TEMP    WIND        PRES
                       AIR SEA DIR/SP/G
                 (UTC) (F)     (DEG/KT/KT) (MB)
THOMAS PT LIGHT  0700   34 40   50/  7/  8 1028.0F
BALT KEY BRIDGE  0700   31     350/  3/  4 1027.3R
COVE POINT       0700   34      70/ 10/ 11 1026.2S
LEWISETTA        0700   38 41   80/ 10/ 12 1025.9S
SOLOMONS ISLAND  0700      42                N/A

$$




USA.gov is the U.S. government's official web portal to all federal, state and local government web resources and services.